Time,TemperatureF,DewpointF,PressureIn,WindDirection,WindDirectionDegrees,WindSpeedMPH,WindSpeedGustMPH,Humidity,HourlyPrecipIn,Conditions,Clouds,dailyrainin,SoftwareType,DateUTC
2014-11-28 01:22:00,51.0,12.0,30.02,North,-999,0.0,0.0,21,0.00,,,-99.99,,2014-11-28 09:22:00,
2014-11-28 01:33:00,51.0,12.0,30.02,North,-999,0.0,0.0,21,0.00,,,-99.99,,2014-11-28 09:33:00,
2014-11-28 01:43:00,51.0,12.0,30.02,North,-999,0.0,0.0,21,0.00,,,-99.99,,2014-11-28 09:43:00,
2014-11-28 01:54:00,51.0,12.0,30.02,North,-999,0.0,0.0,21,0.00,,,-99.99,,2014-11-28 09:54:00,
2014-11-28 02:23:00,51.0,12.0,30.01,North,-999,0.0,0.0,21,0.00,,,-99.99,,2014-11-28 10:23:00,
2014-11-28 02:33:00,51.0,12.0,30.01,North,-999,0.0,0.0,21,0.00,,,-99.99,,2014-11-28 10:33:00,
2014-11-28 02:43:00,51.0,12.0,30.01,North,-999,0.0,0.0,21,0.00,,,-99.99,,2014-11-28 10:43:00,
2014-11-28 02:52:00,51.0,12.0,30.01,North,-999,0.0,0.0,21,0.00,,,-99.99,,2014-11-28 10:52:00,
2014-11-28 03:22:00,51.0,11.0,29.99,North,-999,0.0,0.0,20,0.00,,,-99.99,,2014-11-28 11:22:00,
2014-11-28 03:32:00,51.0,11.0,29.99,North,-999,0.0,0.0,20,0.00,,,-99.99,,2014-11-28 11:32:00,
2014-11-28 03:42:00,51.0,11.0,29.99,North,-999,0.0,0.0,20,0.00,,,-99.99,,2014-11-28 11:42:00,
2014-11-28 03:52:00,51.0,11.0,29.99,North,-999,0.0,0.0,20,0.00,,,-99.99,,2014-11-28 11:52:00,
2014-11-28 04:22:00,52.0,11.0,29.98,North,-999,0.0,0.0,19,0.00,,,-99.99,,2014-11-28 12:22:00,
2014-11-28 04:32:00,52.0,11.0,29.98,North,-999,0.0,0.0,19,0.00,,,-99.99,,2014-11-28 12:32:00,
2014-11-28 04:42:00,52.0,11.0,29.98,North,-999,0.0,0.0,19,0.00,,,-99.99,,2014-11-28 12:42:00,
2014-11-28 04:52:00,52.0,11.0,29.98,North,-999,0.0,0.0,19,0.00,,,-99.99,,2014-11-28 12:52:00,
2014-11-28 05:22:00,53.0,14.0,29.97,North,-999,0.0,0.0,21,0.00,,,-99.99,,2014-11-28 13:22:00,
2014-11-28 05:32:00,53.0,14.0,29.97,North,-999,0.0,0.0,21,0.00,,,-99.99,,2014-11-28 13:32:00,
2014-11-28 05:42:00,53.0,14.0,29.97,North,-999,0.0,0.0,21,0.00,,,-99.99,,2014-11-28 13:42:00,
2014-11-28 05:52:00,53.0,14.0,29.97,North,-999,0.0,0.0,21,0.00,,,-99.99,,2014-11-28 13:52:00,
2014-11-28 06:22:00,51.0,15.0,29.97,North,-999,0.0,0.0,23,0.00,,,-99.99,,2014-11-28 14:22:00,
2014-11-28 06:32:00,51.0,15.0,29.97,North,-999,0.0,0.0,23,0.00,,,-99.99,,2014-11-28 14:32:00,
2014-11-28 06:42:00,51.0,15.0,29.97,North,-999,0.0,0.0,23,0.00,,,-99.99,,2014-11-28 14:42:00,
2014-11-28 06:52:00,51.0,15.0,29.97,North,-999,0.0,0.0,23,0.00,,,-99.99,,2014-11-28 14:52:00,
2014-11-28 07:22:00,51.0,16.0,29.97,North,-999,0.0,0.0,25,0.00,,,-99.99,,2014-11-28 15:22:00,
2014-11-28 07:34:00,51.0,16.0,29.97,North,-999,0.0,0.0,25,0.00,,,-99.99,,2014-11-28 15:34:00,
2014-11-28 07:43:00,51.0,16.0,29.97,North,-999,0.0,0.0,25,0.00,,,-99.99,,2014-11-28 15:43:00,
2014-11-28 07:55:00,51.0,16.0,29.97,North,-999,0.0,0.0,25,0.00,,,-99.99,,2014-11-28 15:55:00,
2014-11-28 08:24:00,52.0,17.0,29.97,North,-999,0.0,0.0,25,0.00,,,-99.99,,2014-11-28 16:24:00,
2014-11-28 08:34:00,52.0,17.0,29.97,North,-999,0.0,0.0,25,0.00,,,-99.99,,2014-11-28 16:34:00,
2014-11-28 08:43:00,52.0,17.0,29.97,North,-999,0.0,0.0,25,0.00,,,-99.99,,2014-11-28 16:43:00,
2014-11-28 08:53:00,52.0,17.0,29.97,North,-999,0.0,0.0,25,0.00,,,-99.99,,2014-11-28 16:53:00,
2014-11-28 09:22:00,54.0,19.0,29.98,North,-999,0.0,0.0,25,0.00,,,-99.99,,2014-11-28 17:22:00,
2014-11-28 09:33:00,54.0,19.0,29.98,North,-999,0.0,0.0,25,0.00,,,-99.99,,2014-11-28 17:33:00,
2014-11-28 09:42:00,54.0,19.0,29.98,North,-999,0.0,0.0,25,0.00,,,-99.99,,2014-11-28 17:42:00,
2014-11-28 09:52:00,54.0,19.0,29.98,North,-999,0.0,0.0,25,0.00,,,-99.99,,2014-11-28 17:52:00,
2014-11-28 10:23:00,62.0,22.0,29.97,North,-999,0.0,0.0,21,0.00,,,-99.99,,2014-11-28 18:23:00,
2014-11-28 10:33:00,62.0,22.0,29.97,North,-999,0.0,0.0,21,0.00,,,-99.99,,2014-11-28 18:33:00,
2014-11-28 10:43:00,62.0,22.0,29.97,North,-999,0.0,0.0,21,0.00,,,-99.99,,2014-11-28 18:43:00,
2014-11-28 10:53:00,62.0,22.0,29.97,North,-999,0.0,0.0,21,0.00,,,-99.99,,2014-11-28 18:53:00,
2014-11-28 11:22:00,65.0,24.0,29.94,North,-999,0.0,1.0,21,0.00,,,-99.99,,2014-11-28 19:22:00,
2014-11-28 11:32:00,65.0,24.0,29.94,North,-999,0.0,1.0,21,0.00,,,-99.99,,2014-11-28 19:32:00,
2014-11-28 11:42:00,65.0,24.0,29.94,North,-999,0.0,1.0,21,0.00,,,-99.99,,2014-11-28 19:42:00,
2014-11-28 11:52:00,65.0,24.0,29.94,North,-999,0.0,1.0,21,0.00,,,-99.99,,2014-11-28 19:52:00,
2014-11-28 12:22:00,66.0,23.0,29.91,West,260,4.0,-999.0,19,0.00,,,-99.99,,2014-11-28 20:22:00,
2014-11-28 12:32:00,66.0,23.0,29.91,West,260,4.0,-999.0,19,0.00,,,-99.99,,2014-11-28 20:32:00,
2014-11-28 12:42:00,66.0,23.0,29.91,West,260,4.0,-999.0,19,0.00,,,-99.99,,2014-11-28 20:42:00,
2014-11-28 12:52:00,66.0,23.0,29.91,West,260,4.0,-999.0,19,0.00,,,-99.99,,2014-11-28 20:52:00,
2014-11-28 13:22:00,66.0,24.0,29.89,WSW,250,3.0,-999.0,20,0.00,,,-99.99,,2014-11-28 21:22:00,
2014-11-28 13:34:00,66.0,24.0,29.89,WSW,250,3.0,-999.0,20,0.00,,,-99.99,,2014-11-28 21:34:00,
2014-11-28 13:44:00,66.0,24.0,29.89,WSW,250,3.0,-999.0,20,0.00,,,-99.99,,2014-11-28 21:44:00,
2014-11-28 15:22:00,63.0,18.0,29.87,North,-999,0.0,1.0,17,0.00,,,-99.99,,2014-11-28 23:22:00,
2014-11-28 15:33:00,63.0,18.0,29.87,North,-999,0.0,1.0,17,0.00,,,-99.99,,2014-11-28 23:33:00,
2014-11-28 15:42:00,63.0,18.0,29.87,North,-999,0.0,1.0,17,0.00,,,-99.99,,2014-11-28 23:42:00,
2014-11-28 15:52:00,63.0,18.0,29.87,North,-999,0.0,1.0,17,0.00,,,-99.99,,2014-11-28 23:52:00,
2014-11-28 16:28:00,59.0,20.0,29.86,North,-999,0.0,0.0,22,0.00,,,-99.99,,2014-11-29 00:28:00,
2014-11-28 16:42:00,59.0,20.0,29.86,North,-999,0.0,0.0,22,0.00,,,-99.99,,2014-11-29 00:42:00,
2014-11-28 16:52:00,59.0,20.0,29.86,North,-999,0.0,0.0,22,0.00,,,-99.99,,2014-11-29 00:52:00,